Regional Weather Roundup
Issued by NWS

Home | Current Version | Previous Version | Graphics & Text | Print | Product List | Glossary On
Versions: 1 2 3 4 5 6 7 8 9 10 11 12 13 14 15 16 17 18 19 20 21 22 23 24 25 26 27 28 29 30 31 32 33 34 35 36 37 38 39 40 41 42 43 44 45 46 47 48 49 50
000
ASUS43 KOAX 272202
RWRNE

WEATHER ROUNDUP FOR NEBRASKA
NATIONAL WEATHER SERVICE OMAHA NE
400 PM CST THU NOV 27 2014

NOTES: SATELLITE DATA IS BEING USED TO AUGMENT CLOUD COVER ABOVE
       12000 FEET.
       "FAIR" INDICATES FEW OR NO CLOUDS BELOW 12,000 FEET WITH NO
       SIGNIFICANT WEATHER AND/OR OBSTRUCTIONS TO VISIBILITY.

  * THESE STATIONS DO NOT REPORT WEATHER SUCH AS RAIN...SNOW OR FOG.

NEZ001>004-019>022-054>056-272300-
NEBRASKA PANHANDLE

CITY           SKY/WX    TMP DP  RH WIND       PRES   REMARKS
SCOTTSBLUFF    MOSUNNY   43  33  68 E3        29.99F
ALLIANCE       SUNNY     57  30  35 SW9       29.97F
CHADRON        MOSUNNY  N/A N/A N/A W14       29.93F
SIDNEY         CLOUDY    45  34  65 SW12      30.04F
$$

NEZ057>060-069>072-079>082-272300-
SOUTHWEST NEBRASKA

CITY           SKY/WX    TMP DP  RH WIND       PRES   REMARKS
NORTH PLATTE   SUNNY     49  24  37 S10       30.05F
IMPERIAL       MOSUNNY   62  30  29 SW7       30.04F
MCCOOK         MOSUNNY   55  25  31 SE13G20   30.06F
$$

NEZ005>010-023>029-035>040-094-272300-
NORTH CENTRAL NEBRASKA

CITY           SKY/WX    TMP DP  RH WIND       PRES   REMARKS
VALENTINE      PTCLDY    45  24  43 S9        29.98F
BROKEN BOW     SUNNY     43  22  43 S21       30.07F
ORD            PTCLDY    38  19  46 S18G24    30.11F WCI  28
$$

NEZ041-046>049-061>064-073>077-083>087-272300-
SOUTH CENTRAL NEBRASKA

CITY           SKY/WX    TMP DP  RH WIND       PRES   REMARKS
GRAND ISLAND   PTCLDY    37  18  46 S16G22    30.19F WCI  28
HASTINGS       MOSUNNY   38  17  42 S13       30.17F WCI  30
KEARNEY *      SUNNY     39  19  45 SE20      30.15F WCI  30
YORK           PTCLDY    32  16  51 S14       30.23S WCI  22
$$

NEZ011>018-030>034-042>045-272300-
NORTHEAST NEBRASKA

CITY           SKY/WX    TMP DP  RH WIND       PRES   REMARKS
NORFOLK        PTCLDY    27  16  63 SE16      30.22F WCI  15
COLUMBUS *     PTCLDY    28  14  54 SE10      30.26F WCI  19
TEKAMAH        MOCLDY    21   6  52 SE14      30.33F WCI   8
$$

NEZ050>053-065>068-078-088>093-272300-
SOUTHEAST NEBRASKA

CITY           SKY/WX    TMP DP  RH WIND       PRES   REMARKS
LINCOLN        PTCLDY    32  14  47 SE14      30.29F WCI  22
OMAHA EPPLEY   MOCLDY    22   8  55 SE14      30.36F WCI   9
FALLS CITY     PTCLDY    30  13  49 SE12      30.36F WCI  20
$$

NEZ044-045-051>053-067-272300-
OMAHA AREA

CITY           SKY/WX    TMP DP  RH WIND       PRES   REMARKS
OMAHA EPPLEY   MOCLDY    22   8  55 SE14      30.36F WCI   9
OFFUTT AFB     MOCLDY    24   9  53 E9        30.35F WCI  14
$$


USA.gov is the U.S. government's official web portal to all federal, state and local government web resources and services.